{"data":{"norad_id":59129,"epoch":"2026-09-22T09:10:44.655456Z","epoch_age_seconds":95237,"freshness":"FRESH","line1":"1 59129U 24043AH  26265.38246129  .00019943  00000+0  24629-3 0  9996","line2":"2 59129  97.5582  61.4606 0004637 192.8112 167.3027 15.60180909143059","mean_motion":15.60180909,"eccentricity":0.0004637,"inclination_deg":97.5582,"raan_deg":61.4606,"arg_perigee_deg":192.8112,"mean_anomaly_deg":167.3027,"bstar":0.00024629,"rev_number":14305,"period_min":92.296988874384,"perigee_km":383.99700116878,"apogee_km":390.27111354737,"semimajor_km":6765.2710573581,"source":"CELESTRAK","updated_at":"2026-09-23T09:00:19.179499Z"}}